Theta_e
290 290 289 289 289 288 287 287 287 287 288 288 288 287 287 287 288 287 287 287 287 287 287 287 287 287 287 287 287 287 287 287 287 288 288 288 288 291 297 299 302 304 306 308 311 313 314 315 316 317 318 319 319 320 320 320 319 320 320 321 322 322 323 322 323 323 324 324 326 327 328 330 331 333 336 338 338 339 340 341 342 344 345 344 344
290 289 289 289 288 288 288 287 287 287 287 288 288 287 286 286 287 287 287 287 286 287 287 286 286 286 286 286 286 286 287 286 287 287 287 287 288 289 295 297 300 303 305 307 309 311 312 314 315 315 317 318 318 318 318 318 318 319 320 321 321 322 322 323 323 323 323 324 324 325 326 327 328 330 332 335 337 338 338 339 340 341 342 344 344
290 289 288 288 288 287 286 286 286 287 287 287 288 287 286 287 287 286 287 286 286 286 287 286 285 285 286 286 286 286 286 286 286 287 287 287 287 288 290 295 297 300 303 305 307 309 310 312 313 314 316 317 317 316 316 317 318 319 320 320 320 321 322 322 322 322 322 322 323 324 325 326 327 328 328 329 330 333 337 338 339 340 340 341 343
290 289 289 288 287 287 286 286 286 286 287 286 287 287 287 287 287 287 287 286 285 285 287 285 284 284 285 285 285 285 286 286 286 286 286 287 287 287 288 291 295 298 300 303 306 307 309 310 310 312 313 315 314 312 313 315 317 318 318 319 320 321 321 321 321 321 321 321 321 322 322 323 324 325 326 327 328 329 330 335 338 339 340 340 340
289 289 291 288 287 287 286 287 286 286 287 287 286 285 286 286 286 287 286 285 285 285 286 285 284 284 284 285 285 285 285 285 285 285 286 286 286 286 287 289 289 294 297 299 302 305 307 308 309 310 312 313 311 311 312 314 316 317 317 317 318 319 320 320 320 319 319 321 322 322 321 321 322 323 324 325 326 327 328 329 332 336 338 339 339
289 289 288 288 287 287 286 285 285 286 286 286 285 285 285 285 285 285 288 284 283 284 284 283 283 283 284 284 284 285 285 285 285 285 285 285 286 286 287 287 288 289 291 297 299 302 306 307 308 309 310 308 308 310 310 313 314 315 315 315 315 317 319 319 318 318 318 317 319 321 322 322 322 322 323 324 325 326 327 328 328 331 335 337 338
289 289 288 287 287 286 285 285 286 286 285 285 284 284 284 285 285 283 282 283 283 285 284 283 283 283 283 284 284 285 285 284 285 284 285 285 286 286 287 287 287 289 291 290 295 298 303 305 307 308 307 305 306 307 309 312 313 313 313 312 312 315 316 317 317 317 316 316 316 317 318 319 319 320 320 321 321 322 324 327 328 329 331 334 337
288 288 288 287 286 286 285 285 286 285 285 285 285 284 284 285 284 283 282 282 284 282 283 282 283 283 284 284 284 285 284 284 284 284 284 285 286 286 286 287 288 289 294 290 291 293 301 302 304 303 303 303 304 305 308 310 310 310 311 311 312 314 315 315 315 315 315 314 315 315 315 316 317 318 319 319 320 320 321 323 326 328 329 332 335
288 288 287 286 286 285 285 286 286 285 284 284 284 285 284 285 283 285 283 282 282 282 282 282 282 283 283 283 283 284 283 283 283 284 286 285 285 285 286 287 289 293 289 290 291 291 296 300 300 299 300 302 303 304 305 307 308 309 309 309 311 313 313 312 312 313 312 312 312 313 314 314 315 316 317 318 319 319 320 321 323 326 327 329 334
288 287 286 286 286 285 285 285 285 284 284 283 283 283 283 282 282 283 283 282 281 281 282 282 283 283 283 283 283 283 283 283 283 288 285 284 284 285 287 288 288 289 290 290 290 289 289 293 296 296 297 300 301 302 303 304 306 307 307 308 310 311 311 310 310 310 311 311 311 312 313 314 314 315 316 317 318 320 321 320 321 323 326 328 329
287 287 286 286 285 285 285 285 285 284 284 283 283 284 283 282 282 282 283 282 281 282 282 282 282 282 282 282 283 283 283 283 285 283 283 283 286 289 288 288 288 288 288 287 285 285 286 286 286 287 289 297 299 300 301 302 303 303 304 306 309 309 310 309 310 310 310 310 310 311 312 313 314 314 315 316 316 316 318 321 322 323 324 326 328
287 286 286 286 285 285 285 285 284 284 283 283 282 282 282 281 281 282 281 282 283 282 281 281 281 280 282 282 282 282 281 283 282 282 285 283 283 284 283 284 283 283 283 284 284 285 285 286 288 287 289 291 296 297 299 300 300 300 302 305 307 308 309 309 309 309 309 310 310 310 311 312 312 313 314 315 315 316 316 317 321 323 324 324 324
287 286 286 286 285 285 285 284 284 284 283 283 283 282 282 282 283 284 281 280 280 280 281 281 279 279 279 280 281 281 283 284 282 283 282 282 282 282 282 282 282 282 283 284 284 284 284 286 287 287 286 285 287 293 296 297 297 297 301 303 305 307 307 308 308 308 308 308 309 310 310 311 312 313 313 314 315 315 316 317 318 319 322 322 323
287 286 286 285 284 284 284 284 284 283 283 283 282 284 283 282 282 280 281 280 279 281 282 279 277 277 277 277 278 280 282 281 282 281 282 282 282 282 282 282 283 283 284 283 282 283 284 285 285 285 285 285 286 287 288 289 290 295 298 301 303 305 306 307 307 308 307 308 309 309 310 311 312 313 313 314 314 315 315 317 318 319 319 320 321
286 286 285 285 284 284 284 284 284 284 283 282 282 282 281 282 281 280 279 280 280 282 280 280 277 278 278 278 274 276 280 279 279 281 282 281 281 281 282 282 283 282 282 282 282 283 284 284 284 284 284 285 286 286 286 288 288 293 295 297 298 301 303 305 306 307 308 308 309 310 310 311 311 312 313 313 314 315 315 316 317 318 319 320 320
286 286 286 285 284 284 284 283 283 284 283 282 281 281 281 280 280 281 280 278 277 279 281 279 279 278 276 276 275 276 274 276 277 280 280 279 280 280 281 281 281 281 282 282 282 283 283 283 283 284 284 284 285 284 285 285 288 292 292 293 295 296 299 303 305 307 307 308 308 309 310 310 311 311 312 313 313 314 314 315 316 317 318 319 320
286 286 285 284 284 284 283 283 283 283 282 282 281 281 281 281 281 281 279 279 278 277 279 280 279 281 278 276 274 274 274 274 277 277 277 279 279 280 281 281 280 281 282 282 282 282 283 283 283 283 283 283 283 284 284 284 285 288 288 290 292 293 296 301 303 305 306 307 308 308 308 309 310 311 311 312 313 313 314 314 314 315 316 318 320
286 285 285 285 284 283 283 283 283 282 282 282 281 280 280 280 281 280 279 279 279 278 277 280 280 281 279 277 277 274 274 275 276 274 277 280 279 279 279 279 279 280 280 281 281 282 283 283 282 282 282 282 283 283 283 284 285 285 285 286 291 293 294 297 301 303 305 306 306 306 307 308 309 310 311 312 312 313 313 313 314 314 314 316 317
285 285 285 285 284 283 283 283 283 282 283 281 280 281 281 281 281 280 280 282 279 277 278 277 277 278 279 279 279 280 278 277 275 275 274 276 277 278 277 279 279 279 280 280 280 280 281 282 282 281 281 282 282 282 282 283 286 288 289 289 292 294 295 296 297 300 301 302 303 305 306 307 308 309 309 309 310 311 312 313 314 314 314 314 316
285 285 285 284 284 283 283 282 282 282 282 281 281 280 281 281 281 280 281 281 279 278 277 277 276 277 280 278 278 279 277 278 277 276 274 272 276 277 277 278 278 278 279 279 279 279 280 280 280 280 280 281 282 281 282 282 282 282 284 289 291 293 295 296 296 295 296 298 301 304 305 306 306 307 306 307 308 309 310 310 311 313 314 315 315
285 285 284 284 284 283 282 282 282 282 283 281 280 280 280 280 280 279 280 279 279 279 278 277 277 277 276 276 276 276 276 276 276 276 275 273 273 274 276 278 278 278 279 279 279 280 280 280 280 281 282 282 281 281 281 282 281 282 286 289 290 293 294 294 294 294 295 295 297 299 301 302 304 304 304 305 306 308 309 310 310 311 312 314 315
284 284 284 284 284 283 282 282 282 282 282 281 280 280 280 280 280 280 279 279 279 279 278 277 278 277 277 277 276 276 275 275 275 274 274 275 273 273 275 274 274 277 279 279 278 278 279 279 279 280 280 280 280 280 280 281 281 283 285 288 290 291 291 291 293 294 294 294 294 295 297 299 301 302 304 306 307 307 308 309 310 311 311 313 314
284 284 284 284 283 283 282 282 281 282 282 280 280 280 280 280 279 279 279 279 278 279 281 278 278 277 277 277 276 276 275 275 274 275 274 273 273 273 274 275 274 274 276 278 279 279 279 279 279 279 279 280 280 280 280 280 283 286 288 288 288 289 290 291 292 292 291 292 293 293 294 296 298 300 303 305 305 306 307 308 309 310 311 312 313
283 283 283 283 283 282 282 281 281 281 281 280 280 280 280 279 279 279 278 278 278 279 279 278 277 277 277 277 276 277 276 276 276 276 275 274 274 273 273 274 274 275 277 277 278 278 278 278 278 279 279 279 280 280 281 282 283 287 286 287 288 288 289 291 290 290 291 291 292 293 294 295 296 297 298 301 303 305 306 307 308 309 310 311 312
283 283 283 282 283 282 281 281 281 281 281 280 280 280 279 279 279 278 278 278 278 278 277 277 277 276 276 276 276 277 276 276 277 276 276 276 274 272 274 274 272 273 275 275 275 277 278 278 279 279 279 279 280 280 280 281 280 284 286 285 286 286 287 288 288 289 290 291 291 292 293 294 295 296 298 299 301 303 304 305 305 307 308 310 311
283 283 284 283 283 282 282 281 281 280 280 280 279 279 279 278 278 278 278 278 277 277 277 276 276 276 276 276 276 276 276 277 276 276 275 275 274 273 273 273 273 273 275 274 275 275 275 277 277 278 278 278 279 279 279 280 280 284 284 282 282 284 285 287 288 289 289 290 291 291 291 292 294 294 295 298 300 301 302 303 304 305 306 307 309
284 284 284 283 283 282 281 281 280 280 280 279 280 279 279 278 278 278 277 277 277 277 276 276 276 276 275 275 276 276 275 276 276 276 276 275 275 274 273 271 271 273 273 274 275 275 275 275 277 277 278 278 278 278 278 278 281 282 282 280 279 282 284 286 288 289 288 289 290 290 291 291 292 293 294 294 296 297 299 301 302 303 303 303 304
284 284 283 283 282 281 281 280 280 280 279 279 279 278 278 278 277 277 277 278 276 276 276 276 276 275 275 275 275 275 276 276 276 275 275 276 276 275 274 273 270 269 272 272 273 274 275 275 276 277 277 277 278 277 280 279 278 281 281 278 278 279 282 284 286 287 288 289 289 289 290 290 290 291 291 292 293 293 294 295 296 296 296 297 298
284 284 283 282 282 281 280 280 279 279 279 279 278 278 278 278 277 277 276 277 276 276 276 275 275 275 275 275 275 275 275 275 275 276 276 275 276 275 275 273 273 270 269 270 272 272 274 274 275 275 276 276 276 277 276 276 278 279 278 277 277 277 280 283 285 286 287 288 287 288 288 289 289 290 290 291 291 292 294 294 295 295 296 297 298
284 283 282 282 281 281 280 279 279 279 279 278 278 278 277 277 277 276 276 276 276 275 275 275 275 275 275 275 275 275 275 275 275 275 275 275 274 275 274 274 274 272 271 269 270 273 274 275 276 275 275 274 276 276 276 275 279 278 277 277 277 276 280 282 283 284 285 286 286 287 288 288 288 289 289 290 291 292 293 293 293 294 295 296 298
283 282 281 281 280 280 280 279 279 278 278 278 278 277 277 276 276 276 276 276 275 275 275 275 275 275 274 274 274 274 274 274 274 274 274 274 274 274 273 274 274 273 272 271 268 272 273 273 274 274 274 275 276 275 275 275 277 277 276 276 276 279 280 279 281 283 283 284 285 285 286 287 287 288 288 289 290 291 292 293 293 293 294 295 297
282 282 281 281 280 280 279 279 278 278 278 277 277 277 276 276 276 275 275 275 275 274 274 275 275 275 274 274 274 273 273 273 273 273 273 273 274 273 273 273 272 272 272 271 269 269 274 274 274 275 275 274 274 274 274 275 276 278 276 275 276 279 277 276 279 281 282 283 284 285 286 287 287 287 288 288 289 290 291 291 292 293 294 295 296
282 281 281 281 280 280 279 279 278 278 277 277 277 277 276 275 275 275 275 275 274 274 274 273 274 274 274 273 273 273 273 272 272 273 272 272 272 273 273 272 272 271 271 270 269 269 271 274 273 273 273 274 273 273 273 274 274 275 277 275 275 275 275 275 275 279 281 282 283 284 286 286 287 287 288 288 288 289 290 290 291 292 293 294 295
281 281 281 281 280 279 279 278 278 277 277 277 276 276 276 275 274 274 274 274 274 273 273 273 273 273 273 272 272 272 272 272 272 271 271 271 271 271 271 271 270 271 271 270 269 269 268 271 272 273 273 273 272 274 273 273 273 275 274 275 275 275 275 275 275 275 279 281 283 284 286 286 287 287 288 287 288 289 290 291 291 291 291 292 293
281 281 281 280 280 279 278 278 277 277 277 276 276 276 275 275 274 274 274 274 273 273 272 272 272 272 271 271 271 271 271 271 271 271 271 271 271 271 270 271 270 271 271 271 270 268 268 269 271 271 271 272 272 273 274 274 274 274 274 274 274 275 276 275 275 276 279 282 283 284 286 286 286 287 287 287 288 288 289 289 290 290 290 291 292
280 280 280 279 279 278 278 277 277 276 276 276 275 275 275 275 274 274 273 273 273 273 272 272 271 271 271 271 270 271 271 270 270 270 271 271 271 271 270 271 271 270 271 271 271 269 269 268 270 271 272 272 273 274 274 275 274 274 274 274 275 275 275 275 275 275 278 281 283 284 285 285 285 286 286 287 287 288 288 288 289 289 289 290 290
280 279 279 279 278 278 277 277 276 276 276 275 275 275 274 274 274 273 273 273 272 272 272 271 272 271 271 270 270 270 270 270 270 270 270 270 271 270 270 271 271 271 271 271 270 270 269 269 270 272 273 273 273 274 274 273 274 274 275 275 275 275 275 275 276 276 279 281 282 282 283 284 284 285 286 286 286 287 287 288 288 288 288 289 289
279 279 278 278 278 277 277 277 276 276 275 275 274 274 274 273 273 273 272 272 272 271 271 271 271 271 270 270 270 270 270 269 270 270 270 270 271 270 270 270 270 271 270 271 271 271 271 270 270 270 272 272 272 273 274 274 274 273 274 274 275 275 274 275 276 277 277 277 276 277 279 280 281 283 284 285 286 286 287 287 288 288 287 287 288
278 278 278 277 277 277 277 276 275 275 274 274 274 273 273 272 272 272 271 271 271 270 270 270 271 271 270 270 270 270 270 271 270 270 271 271 271 270 270 270 271 271 271 271 272 272 271 271 271 272 271 273 273 272 274 275 275 274 273 273 273 275 276 275 274 276 277 276 279 281 281 281 282 281 283 284 285 286 287 287 287 288 287 287 288
278 278 277 277 276 276 276 275 275 274 274 273 273 272 272 271 271 271 271 270 270 270 270 270 270 270 270 270 271 271 271 271 271 271 271 270 271 270 271 272 272 272 272 272 272 272 272 272 271 271 272 272 273 275 275 275 274 274 275 274 273 273 274 276 276 275 276 277 276 276 279 280 280 281 282 283 284 285 285 285 285 285 285 286 287
278 277 277 276 275 275 274 274 273 273 273 273 272 272 271 271 271 270 270 270 270 269 269 269 270 270 270 271 271 272 272 273 274 274 274 274 272 271 273 273 273 273 272 272 272 272 272 272 271 273 272 272 273 273 273 273 273 273 275 275 274 275 275 275 276 277 277 276 276 276 276 276 276 276 277 277 278 280 281 283 284 285 285 286 286
277 276 276 275 275 274 273 272 272 272 272 272 274 276 275 271 270 270 270 270 270 270 270 270 270 271 271 271 272 274 275 275 276 277 278 278 278 276 274 274 273 273 273 272 272 272 272 272 272 273 272 272 273 274 274 274 275 276 275 275 274 274 274 274 275 276 277 276 275 274 276 277 277 277 278 277 279 281 281 281 281 282 283 285 286
275 275 275 274 273 273 273 272 271 271 272 272 277 278 278 277 271 270 269 270 270 270 270 270 270 271 272 272 273 274 276 277 276 278 278 279 279 279 279 279 279 276 274 274 274 274 273 273 273 273 273 273 274 275 274 275 275 275 274 274 274 273 272 271 270 274 277 276 275 275 274 277 277 276 276 277 278 279 279 279 283 283 284 286 287
274 274 273 273 273 272 272 271 271 271 271 275 279 280 279 279 275 270 270 270 270 271 271 271 272 273 273 273 274 274 275 275 275 275 276 277 277 278 278 279 279 279 280 277 274 274 274 273 273 273 273 273 274 275 275 274 274 274 274 274 273 273 272 272 272 271 275 277 275 274 273 276 276 275 275 276 277 278 278 281 284 285 286 287 287
273 272 273 273 272 272 271 271 270 271 270 277 280 281 280 280 278 273 270 271 271 271 271 272 273 273 274 274 274 275 274 276 276 275 273 272 275 277 277 277 278 278 279 280 280 277 276 274 274 274 274 274 273 273 274 274 275 273 274 274 274 274 274 273 273 273 275 278 275 274 273 275 276 275 275 276 277 277 278 282 284 285 285 286 287
272 272 272 272 271 271 271 271 270 270 270 276 280 281 281 280 279 275 271 271 272 273 273 274 274 274 274 274 274 273 274 273 273 273 273 272 272 273 273 274 274 275 278 278 279 279 278 276 274 273 274 275 273 274 276 277 275 273 274 273 274 274 274 274 275 276 277 278 275 274 272 274 276 275 274 276 277 277 278 281 283 285 286 286 287
272 272 271 271 271 270 270 270 270 270 270 277 281 282 282 281 280 276 272 273 274 274 274 275 275 275 275 275 274 272 272 273 273 273 272 272 273 273 273 273 274 275 276 276 276 276 275 275 275 275 275 276 276 276 277 277 277 276 276 275 275 275 275 276 275 275 275 277 277 275 271 274 276 275 275 276 277 277 278 281 284 285 286 286 287
272 272 271 271 270 270 270 270 270 269 270 277 281 282 282 282 282 276 274 274 274 274 274 275 275 275 275 274 273 272 272 272 274 276 276 275 274 274 273 274 275 275 275 277 278 279 278 277 277 277 277 277 279 277 278 278 278 278 277 275 274 272 271 270 269 271 271 274 276 275 273 273 276 275 275 277 277 277 278 278 282 285 286 286 287
272 271 271 271 270 270 270 270 270 270 270 276 281 282 282 283 281 276 275 274 274 274 274 274 274 274 273 273 272 272 272 272 274 276 277 277 275 274 273 273 274 273 274 276 278 279 279 279 279 280 280 280 281 281 281 281 278 276 272 270 268 270 268 267 267 269 269 272 274 276 274 273 275 276 275 277 277 277 277 278 279 283 285 285 286
271 271 270 270 270 270 270 269 270 270 270 275 282 282 282 282 280 275 275 273 273 272 272 273 272 272 272 274 273 272 272 272 275 277 278 276 274 274 273 273 273 273 274 274 274 275 277 277 278 278 279 279 278 278 277 276 276 275 270 267 269 269 267 267 266 268 269 271 273 277 274 273 275 276 275 276 277 277 278 278 279 281 284 284 286
271 271 270 270 269 269 270 270 272 271 270 275 281 282 282 282 279 275 274 273 272 272 271 271 272 271 272 273 275 275 274 275 277 277 278 277 274 274 274 273 272 272 272 273 272 271 271 272 273 273 271 271 270 269 269 274 275 274 271 270 269 268 267 267 267 268 267 270 274 277 273 273 274 275 275 273 272 276 279 279 280 280 281 282 283
Wind_Speed
7 6 6 6 5 5 4 4 3 3 3 3 3 4 4 3 4 4 3 4 4 5 4 4 4 5 5 5 5 5 5 6 5 6 5 5 5 6 12 13 13 13 13 13 13 12 12 12 13 13 13 13 14 14 14 14 15 15 15 14 14 14 14 14 14 14 14 15 15 15 15 16 16 16 15 15 15 15 17 17 18 18 16 17 19
8 6 7 7 6 5 4 4 4 3 3 4 3 4 4 3 4 3 4 4 5 5 4 5 5 5 5 5 5 5 5 5 5 6 5 6 6 6 10 12 13 13 13 13 13 13 14 14 14 14 14 14 15 16 16 16 16 16 15 15 15 14 14 13 13 14 14 14 15 15 15 15 15 16 17 16 15 15 15 16 17 19 20 18 16
8 8 6 7 6 6 5 4 4 3 3 3 2 3 3 4 4 5 5 5 5 5 5 5 5 5 5 5 6 6 6 5 5 4 5 5 6 5 5 10 11 12 13 13 13 13 14 14 14 14 14 15 16 17 18 17 17 17 16 16 16 15 15 14 14 14 14 15 15 15 15 15 15 15 16 17 17 17 16 16 16 16 19 20 18
8 8 8 7 7 6 5 5 4 3 3 3 3 2 3 3 3 4 4 4 5 5 5 5 5 5 6 6 6 6 6 6 6 5 5 5 5 5 5 5 9 11 11 12 13 14 14 14 14 14 13 14 15 18 18 17 17 17 17 18 17 17 16 15 15 15 15 16 16 16 16 16 16 15 15 16 16 17 17 17 17 17 16 18 20
8 8 8 7 7 7 5 5 5 4 3 3 3 3 3 3 4 3 4 4 5 5 4 4 5 6 6 6 6 7 6 6 6 6 6 6 6 5 5 4 4 7 9 11 12 13 14 14 14 14 13 14 16 18 17 16 16 17 17 18 19 18 17 15 15 16 17 17 17 16 16 16 16 16 16 16 16 16 16 17 17 18 18 17 17
8 7 7 7 7 6 6 6 6 4 3 3 4 3 4 4 3 4 4 5 5 5 5 6 5 5 6 6 6 7 6 6 5 6 6 6 5 4 5 4 4 4 3 7 8 10 13 14 14 13 12 14 17 18 17 17 16 16 17 18 19 18 17 16 16 17 18 19 20 19 17 17 18 18 18 18 17 16 16 16 17 17 18 19 18
7 8 8 7 7 7 6 6 6 4 5 3 5 3 3 4 3 4 3 5 5 4 4 5 6 7 6 6 7 7 6 5 5 6 5 5 5 4 5 4 4 3 3 3 5 8 11 13 13 12 14 16 17 17 16 16 16 16 18 18 18 18 17 17 17 18 19 20 20 20 20 19 19 19 19 20 20 20 19 17 16 17 17 18 19
7 7 8 7 7 7 6 6 5 6 5 4 3 4 3 4 2 3 5 5 5 5 5 5 5 7 6 6 7 7 6 5 6 6 5 5 6 5 5 4 4 3 4 4 4 5 10 12 13 14 16 16 16 16 17 17 17 18 19 19 18 17 17 17 18 19 19 20 20 21 20 20 20 20 20 20 20 20 21 20 19 17 17 18 18
8 7 8 8 7 7 6 7 6 6 5 4 4 3 3 4 3 4 5 5 5 5 5 5 6 6 7 7 7 7 5 5 5 5 4 4 4 4 4 5 4 5 4 4 5 5 7 12 12 14 14 14 16 17 17 18 19 20 20 20 20 19 18 18 18 18 18 19 20 21 21 21 21 20 20 20 20 21 21 21 21 20 18 18 18
8 7 7 7 7 7 7 7 6 6 6 4 4 2 3 3 5 3 5 5 5 4 5 6 5 7 7 8 8 6 5 5 4 3 4 4 4 5 5 5 4 4 5 5 5 5 5 7 10 10 11 14 17 17 18 18 19 20 20 21 21 20 20 20 19 18 18 19 21 21 21 21 21 20 20 20 20 21 21 21 21 21 20 19 18
8 8 8 7 7 7 7 6 6 6 6 5 5 4 3 3 4 4 3 4 3 1 2 4 6 6 7 8 7 7 5 3 3 3 3 2 4 5 5 5 4 4 5 5 3 4 4 4 6 6 7 12 15 17 18 18 19 20 20 21 21 21 22 21 21 20 19 20 20 21 21 21 21 21 21 21 21 22 22 22 21 21 21 21 19
8 7 7 7 7 7 7 6 6 6 7 7 6 6 5 5 4 5 5 3 2 1 1 4 4 5 6 6 7 6 4 3 2 1 0 3 4 4 5 5 4 4 3 2 2 3 4 5 5 6 5 8 14 16 17 18 18 20 21 21 22 22 22 22 22 21 20 20 21 21 21 21 21 21 21 22 22 22 23 23 23 22 23 23 23
7 8 8 7 6 6 7 5 6 6 6 7 6 6 5 5 5 3 5 5 2 2 2 1 3 4 1 4 7 5 3 1 1 2 2 3 1 3 3 4 3 3 2 2 4 4 4 4 5 5 6 6 7 11 14 15 16 19 21 21 22 22 23 23 22 22 22 22 21 21 21 21 21 22 22 22 22 22 22 23 23 24 23 24 24
8 7 7 8 8 7 7 7 7 6 5 4 5 4 4 4 5 4 1 4 2 1 3 2 4 2 5 7 6 7 2 2 2 3 7 4 2 2 3 3 4 3 3 5 4 3 3 3 3 4 4 4 4 5 6 7 9 17 20 21 21 22 22 22 23 23 23 22 21 21 21 21 22 22 22 22 22 22 22 23 23 23 24 24 25
8 8 8 8 8 8 8 7 7 7 7 6 5 5 5 5 5 6 6 2 3 2 3 4 1 3 2 0 3 6 5 2 3 6 7 3 1 4 3 3 4 3 2 2 2 3 3 3 3 4 4 4 4 5 6 7 9 15 19 20 20 20 21 23 24 24 23 22 21 20 20 21 21 22 22 22 23 23 23 23 24 24 24 24 25
8 8 7 7 8 9 7 7 8 7 7 8 6 6 5 4 4 4 7 5 2 1 1 3 3 2 5 1 2 1 2 1 6 9 4 2 1 3 3 3 3 3 3 2 3 3 3 3 3 4 3 3 4 5 5 5 9 11 12 14 14 19 22 23 23 23 22 21 21 21 21 21 22 23 23 24 24 24 24 24 24 25 26 24 24
9 9 8 9 7 7 8 7 7 7 7 7 7 7 6 5 6 5 4 7 5 2 0 2 3 2 3 2 3 2 1 2 6 6 1 4 1 0 2 2 3 3 2 3 2 3 4 4 4 3 3 3 4 4 5 5 6 5 6 7 13 19 20 21 21 22 22 22 22 21 21 22 23 24 25 25 26 26 26 26 25 26 26 27 26
9 9 8 7 8 8 7 8 8 8 7 7 6 6 5 5 6 5 6 4 7 6 3 1 1 1 1 2 1 2 3 3 2 5 3 7 4 2 1 1 2 3 3 3 3 5 5 6 4 3 3 4 4 4 4 5 5 5 5 6 17 18 18 19 21 21 21 21 22 22 23 23 23 23 25 26 26 26 26 26 26 26 26 26 27
9 9 9 8 7 7 8 7 7 7 6 7 7 7 7 6 5 5 6 7 6 5 6 4 1 2 2 2 1 0 1 2 2 4 9 2 4 0 2 2 2 2 1 1 3 5 5 4 4 4 4 4 4 4 4 5 5 6 9 13 17 17 18 19 19 19 20 21 22 22 22 23 24 25 26 26 27 28 28 27 27 27 27 27 27
10 9 9 9 8 8 8 7 7 7 7 8 8 7 6 4 5 4 5 6 7 8 6 6 6 2 1 1 1 1 1 0 0 1 2 9 13 2 6 4 2 3 3 2 3 5 5 4 4 4 5 5 6 5 5 4 4 4 4 12 15 17 18 18 19 20 20 21 21 21 21 23 24 25 27 27 28 28 28 29 28 28 28 28 29
9 10 9 9 9 9 8 8 8 8 7 7 7 7 8 8 6 6 6 6 5 6 7 6 6 5 3 0 1 0 0 1 1 3 4 2 8 11 14 6 4 4 4 0 6 5 5 6 4 4 5 6 5 4 4 4 5 4 5 11 15 17 18 19 20 20 20 19 20 21 23 24 25 25 27 28 29 29 28 28 28 29 29 29 29
9 9 9 9 9 9 9 9 9 8 7 8 8 8 7 7 7 7 6 6 5 6 6 6 6 5 5 5 3 1 1 1 2 3 2 5 8 6 9 13 16 15 14 4 1 4 4 3 5 6 6 6 5 4 3 3 3 3 5 11 15 17 18 18 19 19 20 20 21 23 24 26 26 28 28 28 28 28 29 29 29 29 29 30 30
8 9 10 10 9 9 9 9 7 7 8 8 9 9 8 7 6 5 6 7 6 6 5 4 5 5 4 6 6 6 6 4 4 3 3 3 4 7 7 5 7 13 11 10 11 10 8 6 6 6 6 6 5 5 4 4 4 4 9 14 16 17 17 18 20 21 22 22 23 24 25 26 28 28 29 28 28 28 28 28 28 29 29 30 30
8 8 9 10 10 9 8 7 8 8 8 7 7 7 7 6 6 6 5 5 5 6 6 5 5 4 4 4 4 4 4 5 4 4 5 5 5 8 8 5 6 8 6 9 11 11 9 8 5 4 5 5 5 4 4 4 4 8 9 9 14 16 19 22 23 23 23 23 23 24 26 27 27 28 27 28 28 28 27 27 27 28 30 30 31
11 11 11 13 11 10 10 10 9 8 8 7 6 7 7 6 6 5 5 6 7 7 6 6 6 5 5 3 4 3 4 4 3 4 4 4 4 7 6 3 7 9 7 3 4 4 7 7 8 6 5 5 5 4 3 3 3 6 10 6 14 19 22 23 24 24 23 23 24 26 26 27 27 28 28 27 27 27 28 28 27 28 30 31 31
14 14 13 13 11 11 10 9 7 7 7 8 7 7 7 7 6 6 6 5 6 7 7 6 5 4 4 4 3 4 4 3 3 3 4 3 5 5 8 6 7 9 4 3 3 2 3 5 5 5 5 4 5 4 4 4 4 7 15 12 13 19 22 23 23 24 24 24 25 25 26 27 28 29 29 29 28 28 28 28 28 28 29 30 31
13 12 11 13 12 10 10 10 10 9 8 8 7 7 7 6 6 6 5 6 6 7 7 7 6 5 4 4 4 3 4 4 4 5 4 5 4 4 4 10 7 3 5 3 5 6 8 2 4 3 5 4 3 2 1 3 7 15 18 10 9 17 20 23 23 24 24 24 25 26 27 28 29 29 29 29 28 29 29 28 30 30 31 31 32
10 10 11 12 12 11 10 11 10 9 9 9 9 8 8 8 7 7 7 5 7 7 7 7 6 6 5 4 3 3 3 4 4 5 5 4 4 3 2 1 4 11 6 9 1 4 6 3 1 3 4 3 1 3 6 6 6 14 13 9 10 11 18 22 23 23 24 25 26 27 28 28 29 30 30 29 29 29 29 30 30 30 31 31 31
11 11 12 11 11 11 11 10 11 10 10 9 9 9 9 9 8 8 8 6 7 7 7 7 6 6 4 4 4 4 3 3 3 4 5 3 4 4 4 4 3 2 7 7 8 4 1 4 0 2 3 2 2 0 3 4 7 12 10 9 9 8 15 22 24 24 24 26 27 28 29 29 29 30 29 29 29 30 30 30 30 30 31 32 33
11 10 11 13 11 12 11 11 10 10 11 9 9 10 9 8 8 8 7 7 7 6 6 6 6 5 4 3 3 4 2 3 4 3 3 4 4 4 4 4 4 5 4 7 10 3 9 3 5 4 3 2 4 6 4 7 12 16 9 9 9 10 18 22 22 23 25 27 28 28 29 29 29 30 30 30 30 30 31 31 31 31 31 32 33
12 12 13 13 12 12 12 12 11 12 10 10 10 10 10 9 8 8 8 8 7 7 5 6 5 5 4 4 3 3 3 3 3 2 2 3 4 3 3 3 2 2 3 5 10 3 6 2 2 1 0 6 6 6 8 9 10 12 11 10 9 14 22 17 22 24 25 27 28 29 29 30 30 30 30 30 31 31 31 31 32 32 32 33 33
13 14 14 15 15 15 13 13 12 12 12 10 11 11 10 9 9 8 8 8 7 7 6 5 5 6 5 5 5 4 3 3 3 3 3 3 3 4 3 3 2 2 2 5 9 19 6 10 7 7 8 6 7 12 11 7 10 15 10 11 11 16 12 11 17 22 25 27 27 28 30 30 31 31 31 31 32 32 32 32 32 32 32 32 32
14 15 16 16 16 15 15 14 14 13 13 12 11 10 10 9 8 8 8 8 8 7 7 6 5 6 6 5 5 4 4 4 4 4 4 4 3 4 3 3 3 2 2 5 10 17 17 5 12 5 3 7 11 5 15 11 9 10 9 10 11 10 10 10 11 17 23 25 28 29 30 31 32 31 31 31 31 32 32 33 33 32 32 32 32
13 15 15 14 14 15 15 15 14 13 13 13 12 11 11 10 9 7 9 9 8 8 7 7 6 5 5 5 5 5 4 5 4 4 4 4 4 4 4 4 4 4 2 5 9 11 21 13 9 13 7 4 14 5 11 17 12 9 14 11 9 10 11 10 10 11 19 23 28 30 31 31 32 32 32 32 32 32 33 33 32 32 32 32 32
12 13 14 14 15 15 15 15 14 14 14 13 11 11 11 12 11 10 9 9 10 10 9 8 8 6 6 6 6 5 4 5 5 5 4 5 5 5 5 4 4 4 3 5 7 12 15 20 12 14 10 4 8 15 11 11 13 11 13 13 9 8 8 10 11 11 18 24 27 29 32 31 31 31 31 33 32 32 33 33 33 33 33 32 33
13 12 12 13 13 14 15 14 14 14 13 12 11 11 12 12 11 11 10 10 9 9 9 8 8 7 7 6 6 6 5 6 5 5 5 5 5 5 5 4 4 5 5 5 8 9 13 16 19 9 14 13 9 8 10 13 13 12 10 11 11 12 11 10 11 12 13 22 25 29 31 31 31 31 32 34 34 34 34 35 34 33 33 33 33
12 11 12 12 13 14 15 15 14 14 13 13 13 12 10 10 10 10 11 10 9 9 8 8 8 8 7 7 6 6 6 6 6 6 6 7 6 5 5 5 5 5 5 6 8 9 12 15 17 16 11 15 12 10 10 14 14 11 12 15 13 12 12 12 10 10 16 23 25 29 30 30 31 33 34 34 35 36 35 34 35 34 34 34 33
13 12 14 13 14 15 13 13 13 13 12 12 12 12 12 11 10 9 9 9 9 8 8 8 8 7 7 7 7 7 7 7 7 6 7 8 7 7 7 6 5 6 7 8 9 11 12 15 14 18 16 12 17 13 7 14 16 14 15 14 12 9 11 15 13 9 8 10 10 11 17 22 25 30 31 32 34 34 35 34 34 34 35 33 33
14 14 13 13 12 13 13 12 13 13 12 11 11 11 11 11 11 11 10 9 8 8 8 8 7 7 6 6 7 7 8 8 8 8 8 8 7 7 7 6 7 8 8 9 10 12 13 14 14 13 15 14 9 17 12 8 14 14 14 18 23 13 9 12 15 11 9 11 15 21 21 23 27 26 30 34 34 35 35 35 34 36 34 33 32
15 16 16 15 12 11 12 12 12 11 12 12 11 11 11 11 10 10 10 10 9 8 8 7 7 7 7 7 7 8 9 9 9 8 7 7 6 6 7 7 8 9 10 10 11 11 11 12 13 14 13 15 15 13 14 11 14 19 10 12 18 25 19 17 15 12 9 11 14 13 13 17 19 23 28 28 30 32 32 31 31 32 33 31 30
12 14 13 14 14 12 11 11 12 11 12 12 11 12 12 11 10 11 11 10 10 9 8 8 7 7 7 7 8 9 10 12 14 11 10 9 6 6 7 8 8 9 9 8 8 10 11 11 13 11 15 14 15 15 16 16 10 19 14 13 18 16 17 18 20 16 10 11 12 12 14 10 12 12 11 11 12 20 23 29 24 28 26 27 32
13 12 13 13 13 14 14 12 11 11 11 9 12 20 16 12 12 10 9 9 10 8 9 8 8 8 9 8 8 14 15 16 15 15 15 14 15 10 8 8 8 9 8 8 9 8 8 10 10 11 14 16 15 17 16 16 17 16 20 16 17 21 19 19 19 16 10 9 13 13 12 9 10 13 11 11 10 12 10 10 11 17 26 34 34
13 13 13 14 13 13 14 14 14 12 11 10 21 22 22 21 13 11 11 10 9 9 9 9 9 9 9 10 9 12 14 13 12 15 14 15 15 16 18 18 15 10 8 10 10 9 10 12 12 13 13 17 18 14 20 16 15 19 15 18 20 17 17 19 20 20 10 6 10 14 14 13 10 14 14 13 12 11 13 15 26 32 33 33 34
13 12 14 15 15 13 12 13 13 13 11 15 24 24 24 24 18 11 10 10 10 9 10 10 9 9 9 9 9 8 8 8 7 6 10 13 14 15 16 16 17 19 19 14 11 11 10 11 12 13 15 16 19 16 13 17 18 18 17 19 17 19 21 21 19 19 17 8 12 15 17 17 9 13 16 14 11 12 14 23 32 34 34 34 33
12 14 15 14 14 13 13 14 13 12 11 19 24 25 24 24 23 16 9 10 10 10 10 10 10 9 8 8 9 8 6 11 8 6 4 4 11 16 16 17 18 19 19 22 23 17 12 13 14 15 11 14 16 18 17 17 15 20 22 17 19 16 20 18 25 18 20 13 11 16 21 21 11 11 15 13 10 12 15 23 32 33 34 33 33
14 14 12 15 13 13 14 14 13 12 12 19 25 25 24 24 24 17 10 11 10 10 11 10 9 9 10 9 9 7 6 6 7 7 7 6 6 8 9 9 9 14 19 22 23 25 21 15 15 17 18 14 18 17 21 17 19 16 16 18 20 18 18 21 21 24 22 13 13 16 20 21 9 12 17 14 9 12 14 21 30 32 32 33 32
15 16 16 15 14 13 12 11 11 11 11 21 24 25 25 25 25 17 10 10 9 9 9 10 10 10 10 10 9 6 6 6 6 8 7 7 8 9 10 10 10 10 11 11 11 12 14 15 16 18 19 15 17 18 15 15 15 17 15 18 18 17 17 20 20 22 19 13 11 13 19 18 8 10 16 14 11 12 15 18 29 32 32 32 33
10 9 9 11 13 13 12 12 11 11 11 22 23 24 25 26 26 12 11 10 9 8 9 9 9 9 9 8 7 6 6 7 9 13 11 8 8 9 9 10 9 9 11 15 21 20 17 15 14 15 15 18 23 22 21 19 16 13 14 15 14 16 17 18 18 17 16 10 10 12 16 19 16 13 17 13 11 14 15 12 20 30 31 31 32
13 13 13 13 12 13 14 14 13 12 11 20 25 25 26 26 21 10 10 8 8 8 9 10 9 8 7 7 7 5 6 6 10 13 13 12 7 8 9 9 9 12 11 10 16 21 23 25 27 28 31 31 30 30 29 32 25 21 15 15 16 13 15 19 18 17 18 12 8 12 15 20 16 9 13 12 11 14 14 11 12 20 31 33 34
14 14 11 11 10 11 14 15 14 13 12 18 26 26 26 27 17 11 10 9 8 8 7 7 5 5 7 12 9 6 6 7 11 13 13 10 7 8 8 11 13 10 11 13 12 12 19 25 28 29 27 25 28 31 31 29 29 22 13 16 16 13 18 16 20 19 19 15 10 10 14 19 15 11 10 13 13 12 13 11 13 16 24 26 31
11 10 10 10 10 10 11 12 15 13 12 16 27 25 26 26 17 9 9 9 9 8 7 6 6 5 7 8 12 10 9 9 13 12 14 11 7 8 10 10 9 11 11 12 11 12 12 11 11 9 10 16 15 13 16 28 28 24 17 16 13 14 16 18 18 18 17 15 7 12 15 16 12 13 9 11 13 10 10 11 10 11 10 11 11
Wind_Direction
149 151 142 140 143 139 133 129 127 133 113 86 94 90 71 72 69 64 55 43 36 27 21 10 6 3 0 342 339 335 334 330 329 329 331 329 329 324 335 338 341 345 351 353 356 358 1 3 4 5 5 5 3 1 1 359 356 353 351 349 347 346 345 344 342 340 337 335 334 334 336 335 333 328 322 318 316 311 305 296 285 273 265 265 265
152 151 145 148 146 140 132 138 128 136 108 95 99 97 97 78 73 67 59 43 37 18 22 5 0 356 353 342 332 329 324 323 325 326 323 325 324 323 328 332 335 341 345 349 356 360 3 2 4 6 5 5 5 3 359 356 353 351 350 349 348 346 346 345 345 343 341 338 335 333 333 333 335 335 333 328 320 315 310 303 294 285 274 265 268
151 153 148 148 147 143 141 141 118 120 118 108 104 108 104 96 89 73 58 48 33 18 20 6 353 348 345 339 327 324 321 320 320 321 322 315 315 316 317 323 328 334 338 346 354 359 1 1 2 4 3 4 5 1 355 351 350 349 349 349 348 347 347 346 348 347 345 343 340 337 334 333 333 334 335 337 336 331 319 310 305 297 290 280 266
154 154 151 151 150 146 150 133 137 143 120 123 108 104 106 109 90 81 74 65 41 25 15 12 350 338 336 331 326 322 318 320 323 323 316 315 311 310 315 316 324 330 336 342 350 353 358 360 2 360 0 2 4 357 352 349 347 347 348 348 347 346 346 348 351 350 348 345 342 340 338 336 334 333 331 332 333 333 331 323 312 303 294 288 286
161 157 154 150 149 146 145 144 151 143 133 130 111 102 92 86 71 78 70 56 45 23 15 10 353 336 333 322 325 315 311 319 319 321 317 312 311 311 315 315 316 324 330 337 342 346 352 355 355 353 354 1 360 353 351 349 347 347 347 347 345 344 345 347 351 351 349 348 346 341 338 336 335 334 331 328 327 327 327 325 322 315 305 293 283
158 157 151 149 150 149 147 150 154 141 136 124 110 116 107 94 96 78 62 54 43 20 11 357 344 329 323 315 316 304 311 313 315 311 307 304 304 311 308 305 303 302 312 326 338 344 348 350 351 351 355 2 354 349 350 349 347 346 346 345 343 340 341 345 347 349 347 346 345 343 344 345 344 342 339 337 332 326 322 320 318 316 312 304 294
164 155 156 152 151 151 151 157 149 140 128 134 123 110 107 105 111 85 74 59 53 35 16 348 332 328 319 315 305 304 307 305 311 307 305 301 310 307 305 303 295 299 306 336 343 348 345 351 354 359 1 355 348 347 348 347 345 345 343 340 338 336 337 340 344 345 345 343 340 340 339 338 337 336 334 334 334 333 329 322 315 313 311 307 302
165 160 154 159 156 155 159 154 149 134 133 130 113 119 116 106 94 97 75 44 36 19 17 343 327 316 312 306 297 295 301 307 305 304 302 311 311 310 304 293 305 322 342 349 354 347 349 351 355 360 358 354 348 348 347 345 343 341 338 336 333 333 335 338 340 341 342 340 338 337 336 335 334 332 331 330 330 329 326 324 320 313 310 308 303
168 166 156 159 158 153 159 155 147 139 138 123 117 141 127 113 80 71 86 74 42 10 352 347 325 313 308 303 293 293 297 299 296 293 305 308 302 295 314 332 334 341 341 358 1 4 353 351 357 358 354 348 350 349 344 340 336 336 336 333 330 330 333 335 336 336 336 336 335 333 333 333 331 330 329 329 328 327 324 320 319 316 310 306 307
170 167 159 161 157 153 155 152 144 137 133 125 123 104 109 116 94 65 77 77 48 19 343 333 325 314 312 303 297 291 287 290 287 293 303 310 324 342 328 314 332 336 350 4 6 4 357 353 352 357 354 355 353 344 338 334 333 333 331 328 325 326 328 330 331 331 332 332 330 329 328 328 328 329 329 329 328 326 324 319 315 314 312 307 302
169 166 159 158 155 152 151 155 145 141 135 129 125 122 107 92 110 91 67 90 109 51 311 316 316 312 305 299 298 292 291 279 283 288 300 308 341 327 322 322 335 347 355 1 0 2 359 354 4 6 355 352 345 339 334 331 331 329 326 323 323 323 324 325 326 327 329 329 327 326 325 325 325 326 327 327 326 324 322 319 315 312 314 315 308
169 166 160 159 155 158 153 154 151 145 143 142 150 152 145 125 123 112 90 66 61 94 346 325 305 295 292 300 292 293 291 275 267 270 243 358 332 321 324 319 351 340 343 335 3 8 12 10 11 357 352 344 340 336 333 329 330 327 322 321 320 320 322 323 324 325 325 326 325 323 322 322 322 323 323 323 322 321 320 318 315 315 315 315 316
170 166 166 161 155 151 150 158 158 155 157 165 164 163 161 153 139 127 118 90 55 24 349 325 3 326 299 304 313 301 289 212 194 146 324 319 342 347 323 350 328 327 318 354 17 18 16 9 2 350 342 341 335 332 329 329 329 323 319 318 318 320 322 322 322 322 323 324 323 322 320 319 320 321 320 320 319 319 318 316 313 312 312 311 311
171 171 166 163 159 161 163 168 164 165 163 155 157 158 150 145 143 91 56 120 121 78 355 57 24 39 324 335 324 328 345 61 173 334 13 352 345 27 347 340 327 324 356 17 6 8 353 354 348 336 325 329 326 325 321 319 318 317 317 318 320 320 320 319 320 320 320 320 320 319 319 319 319 318 318 317 317 317 317 315 313 312 311 310 308
175 173 169 172 168 163 171 169 169 163 153 157 162 161 164 168 174 143 117 64 111 100 56 72 144 282 203 70 351 10 328 356 298 354 336 314 318 14 352 340 320 326 346 6 351 335 325 339 334 320 317 325 325 318 313 311 310 309 314 316 318 320 319 318 316 316 317 318 318 319 319 319 319 317 317 315 315 315 314 313 312 309 309 310 308
175 175 174 173 171 172 166 171 174 170 161 158 164 170 169 175 168 155 139 112 109 113 78 84 106 44 21 50 244 118 344 318 326 292 235 248 339 341 6 332 321 335 2 349 320 320 310 315 310 298 300 313 310 304 302 302 304 308 310 316 323 321 317 314 313 315 317 319 322 322 322 321 319 317 316 316 314 313 312 311 310 309 307 304 304
178 180 175 176 174 171 172 173 170 170 160 158 165 174 178 180 172 156 154 138 136 131 351 50 72 77 138 60 359 10 205 273 330 291 328 341 357 21 322 328 316 312 325 309 326 314 304 306 295 295 304 310 302 295 296 298 304 304 312 320 320 315 312 311 312 314 317 320 321 323 323 322 320 318 316 314 313 311 309 308 307 306 305 304 302
181 178 178 171 176 177 174 173 174 170 167 162 157 156 176 175 186 163 141 135 133 130 131 12 74 101 129 136 158 201 302 284 29 313 283 247 217 221 234 209 262 302 328 349 333 313 309 302 296 293 307 302 295 295 293 297 298 301 310 314 315 313 311 311 312 314 317 321 323 322 321 320 319 318 316 315 313 310 307 306 304 303 301 300 298
182 180 179 177 172 173 177 181 176 169 161 152 162 173 175 180 181 161 160 141 128 126 148 159 14 42 95 110 94 103 144 3 298 314 326 346 205 246 213 224 304 321 304 271 297 298 296 284 281 299 304 293 288 285 287 289 296 306 312 313 312 311 311 310 311 316 320 320 319 319 318 318 317 316 315 313 311 310 308 305 303 300 299 298 296
178 182 179 176 172 174 177 177 177 174 165 169 168 169 165 175 179 170 151 148 144 136 148 151 138 199 72 58 3 56 94 101 106 250 279 312 309 277 178 108 350 262 260 276 295 292 285 268 281 290 287 289 286 287 293 294 299 306 310 303 310 311 311 313 317 317 315 314 316 316 316 316 316 315 314 312 309 306 305 303 301 300 298 296 295
183 178 180 177 176 176 176 177 177 177 172 164 165 167 169 167 164 157 161 153 147 142 131 154 143 171 128 48 90 15 27 162 184 144 201 241 279 299 303 306 281 192 152 317 295 281 271 276 267 271 280 279 270 267 271 286 292 295 294 297 307 311 313 313 312 311 313 317 318 317 315 313 312 310 309 308 306 304 302 300 298 296 295 294 293
183 182 177 180 178 176 178 182 182 176 172 170 165 166 170 172 172 164 159 149 143 138 143 147 152 160 157 157 145 104 71 323 184 171 241 207 250 275 299 321 333 319 328 325 277 290 287 266 286 289 282 275 279 277 275 283 285 287 279 294 309 311 311 311 310 312 314 315 315 314 312 311 309 307 305 302 301 301 299 297 297 295 293 291 289
179 185 184 180 182 180 181 184 178 177 170 170 176 173 172 169 166 158 157 152 150 140 134 140 148 158 165 164 181 173 190 185 189 196 193 235 272 253 264 261 276 301 313 331 331 316 299 290 283 272 274 278 286 293 296 292 295 283 290 306 310 311 312 311 311 312 312 311 311 311 309 307 306 306 304 302 300 297 295 293 293 293 292 290 289
183 183 188 185 180 185 182 174 180 178 181 177 171 168 165 159 160 158 161 153 143 140 142 147 158 165 174 173 176 176 187 203 218 202 199 238 229 271 284 290 266 211 277 309 300 292 294 289 260 256 259 271 277 277 289 291 293 296 302 304 313 316 314 312 310 309 308 308 308 308 306 305 304 303 302 300 299 297 294 293 293 293 292 290 288
192 189 193 184 181 179 179 182 183 186 175 170 170 163 160 160 160 159 159 163 160 150 150 162 161 168 185 183 174 180 206 206 208 208 226 225 234 281 269 262 274 289 284 231 274 251 254 267 284 281 284 283 285 292 289 307 295 296 312 325 321 316 311 308 308 307 309 309 309 308 306 304 302 302 301 298 296 295 294 293 293 291 290 289 288
187 195 188 182 185 186 182 181 175 169 170 172 166 164 161 160 161 161 167 168 150 147 147 151 158 168 155 161 175 193 211 210 209 211 236 252 267 268 300 288 268 273 267 275 208 309 277 229 237 246 257 263 281 294 320 317 334 332 330 323 315 309 308 308 309 310 311 311 309 307 304 302 301 301 299 298 297 296 295 294 293 292 291 288 286
192 191 176 184 185 177 179 175 174 173 170 168 165 161 159 153 158 158 159 162 155 145 144 147 155 160 158 166 180 187 218 214 208 238 221 232 243 270 324 324 318 235 291 220 250 202 244 250 206 226 230 249 249 265 286 3 345 325 315 313 303 303 306 308 309 311 311 310 307 304 301 300 299 299 298 296 295 294 293 292 289 290 290 290 288
186 176 183 180 180 178 176 178 171 169 171 170 165 163 162 158 158 160 165 173 153 149 151 149 159 163 165 167 164 212 209 217 221 233 229 225 226 225 229 237 294 310 317 303 85 298 184 209 350 234 239 188 227 104 358 335 312 305 309 302 301 301 304 306 307 308 307 307 304 301 299 298 298 297 296 295 293 292 291 289 289 288 287 285 284
181 180 175 178 178 176 175 173 173 173 171 171 167 163 163 162 164 163 168 174 158 158 152 155 165 157 156 166 183 198 214 217 231 227 230 224 220 212 194 203 210 272 319 293 317 280 31 120 199 287 155 146 142 8 323 294 298 304 297 293 287 288 298 302 304 304 303 301 300 298 296 295 295 296 295 294 292 291 290 289 287 286 285 285 284
175 174 172 174 175 176 175 176 175 172 174 170 168 167 163 166 167 170 171 166 158 151 156 152 157 150 151 157 173 197 206 214 222 228 219 214 204 195 192 197 183 215 261 296 294 153 280 231 192 221 206 239 329 316 311 298 298 301 288 285 290 286 292 296 297 296 295 295 295 294 294 295 295 295 294 292 291 290 289 288 286 285 284 284 283
173 171 173 173 174 177 177 176 174 175 173 173 168 168 168 164 170 169 173 168 161 157 156 150 154 147 155 174 174 194 196 210 211 201 207 200 211 191 193 163 182 202 245 279 292 278 118 310 188 186 348 302 301 302 301 295 291 294 290 285 283 285 292 291 290 290 290 291 293 294 295 295 295 294 294 292 291 289 287 286 286 285 285 284 283
177 173 173 177 177 177 179 176 176 174 174 172 172 171 170 173 169 169 174 165 160 158 156 154 154 156 163 177 183 183 186 190 210 217 216 219 202 207 194 188 210 201 227 269 261 273 244 281 261 260 275 288 297 298 287 278 286 288 282 281 277 282 285 281 278 282 287 289 291 293 295 296 296 294 293 292 290 289 287 286 285 285 283 282 281
178 177 179 179 178 177 175 177 176 176 174 174 176 172 172 171 172 168 168 167 161 161 154 156 158 160 169 177 181 183 174 198 209 213 216 216 217 216 204 198 219 210 226 256 271 280 287 215 280 252 260 304 289 277 296 295 289 289 268 271 279 276 271 270 277 276 282 287 291 293 296 295 296 294 293 291 290 288 287 285 284 283 283 282 280
180 183 181 177 177 175 176 178 178 176 176 175 174 172 172 170 171 171 172 167 165 159 158 164 164 165 167 179 191 182 184 197 202 209 210 213 215 218 219 199 213 230 211 261 263 276 288 291 279 291 281 287 291 289 293 305 296 283 288 277 265 267 272 276 275 274 273 284 290 293 295 294 294 293 291 290 289 288 286 285 283 283 283 282 280
183 183 182 178 177 177 177 178 176 177 177 175 176 175 175 173 172 173 173 170 169 165 167 172 168 163 172 184 194 178 180 193 205 211 204 216 216 219 221 207 219 224 234 234 264 275 281 288 292 293 294 280 285 303 298 283 287 289 286 287 277 266 261 264 270 274 279 285 289 292 297 296 294 292 289 288 287 286 285 283 282 282 281 282 280
183 185 178 177 176 179 180 179 179 176 174 175 174 178 176 174 173 172 171 174 172 170 169 166 166 169 178 185 192 182 182 195 204 201 206 207 214 217 216 224 219 236 237 236 246 262 283 289 291 285 300 304 292 281 291 290 288 292 283 277 277 278 271 260 256 269 277 281 286 293 295 293 291 288 287 284 284 284 281 280 279 279 279 281 279
187 178 179 176 178 180 184 182 178 176 176 171 172 176 177 175 173 170 172 172 171 169 166 164 166 169 178 188 186 179 186 197 207 204 203 208 216 208 221 221 227 232 235 241 248 252 268 274 284 287 289 292 291 291 303 299 299 293 287 285 286 280 277 264 262 268 269 274 280 286 286 286 286 285 284 282 280 281 279 278 277 277 277 278 277
178 183 180 180 181 183 182 180 177 175 172 173 175 175 173 171 170 172 170 169 166 163 163 167 166 172 179 185 187 187 192 200 207 202 202 209 209 213 219 222 225 231 239 243 245 249 253 263 273 291 291 289 301 289 291 297 298 303 300 289 269 263 279 289 278 272 268 276 283 273 276 278 276 278 280 282 280 278 278 277 276 275 276 276 276
177 178 184 182 185 180 178 173 177 174 171 171 172 173 172 171 171 170 167 163 163 161 168 167 167 170 178 185 192 195 199 207 208 206 206 208 206 214 216 220 225 231 239 243 246 252 256 265 272 269 285 290 275 294 298 278 285 286 301 306 302 291 270 270 288 297 292 280 268 273 279 281 282 285 284 283 279 279 280 279 276 274 274 274 273
182 181 178 180 179 177 176 175 174 169 168 171 173 173 172 171 169 169 167 164 164 164 164 166 168 173 182 190 198 205 209 213 214 212 206 206 207 216 220 220 225 233 239 244 248 250 256 261 266 277 274 284 288 281 283 287 293 291 289 286 296 304 310 302 286 291 294 280 289 288 271 272 276 276 276 276 275 276 279 280 277 275 272 270 274
180 181 176 172 169 175 175 175 171 170 172 176 175 172 169 171 170 169 169 168 164 164 164 168 174 176 185 196 205 210 212 217 219 219 213 211 205 218 224 219 227 234 239 243 248 255 258 260 267 266 277 278 279 288 291 298 288 293 300 299 292 288 297 299 298 294 291 282 273 271 281 269 274 268 262 257 255 260 265 266 271 273 277 280 284
176 173 173 175 174 173 172 173 172 174 178 176 178 177 174 168 169 167 165 166 164 159 161 168 178 186 193 197 204 215 221 224 227 230 232 234 233 226 213 209 215 223 230 238 245 245 249 257 258 274 280 282 285 291 290 293 297 296 296 299 294 299 301 291 288 287 293 283 287 278 271 263 261 270 259 259 255 253 255 257 258 269 272 274 275
174 174 173 172 177 178 176 174 176 179 180 177 178 180 178 175 168 167 166 167 165 163 169 171 176 185 194 200 201 215 218 222 228 233 241 243 247 251 254 255 255 254 253 255 255 253 264 269 272 271 267 278 281 285 288 292 295 299 295 294 294 293 293 295 293 295 274 269 274 283 282 268 258 274 271 262 261 253 259 261 267 270 271 272 273
177 170 175 181 178 176 176 177 179 180 179 180 182 181 179 177 172 167 165 165 167 169 171 175 178 184 191 194 203 203 209 209 209 227 242 248 251 254 257 259 260 261 260 261 267 266 261 266 273 271 279 274 284 288 290 295 296 291 288 290 283 289 287 289 283 285 292 293 282 284 279 275 250 257 264 259 251 252 256 265 269 271 272 272 273
167 176 183 174 178 175 175 176 182 181 179 183 183 182 180 178 174 167 166 163 166 171 174 179 181 183 186 196 204 206 189 210 222 221 208 238 254 259 263 265 267 266 267 267 267 268 275 273 269 274 269 288 289 283 285 287 285 287 290 287 287 280 280 277 280 281 284 285 280 277 281 278 271 255 261 257 248 255 259 263 267 269 271 270 271
178 178 174 178 175 178 180 180 179 179 178 187 185 183 181 178 174 166 166 166 169 172 176 179 180 185 191 198 198 194 181 194 215 217 224 227 230 241 248 251 250 258 262 266 268 269 273 275 281 279 277 271 271 279 281 283 285 281 286 282 288 278 279 273 279 282 285 291 277 283 281 276 259 261 266 267 246 251 251 254 262 267 269 270 270
177 180 179 179 181 179 178 177 176 180 185 188 187 185 182 178 174 164 166 167 170 174 177 180 183 189 198 198 201 186 188 201 206 215 215 225 231 238 240 241 244 248 255 264 268 268 267 265 263 266 272 272 274 278 284 282 278 277 273 278 286 288 293 294 292 284 283 280 265 260 269 275 255 258 263 269 259 253 255 255 262 267 270 269 270
178 171 178 178 175 177 176 174 175 181 183 191 188 185 183 181 175 164 168 170 166 166 175 181 186 191 195 205 197 197 202 212 225 236 243 240 234 238 248 253 258 261 266 268 270 271 269 269 269 275 279 283 284 285 285 285 288 294 298 299 297 294 294 289 282 286 278 277 259 257 267 273 271 264 271 267 259 259 258 249 255 264 267 269 270
176 180 181 181 178 175 175 177 178 181 182 193 189 185 184 181 179 157 162 160 162 160 169 175 184 195 197 200 200 198 214 217 234 245 249 252 256 258 260 265 265 264 257 264 276 280 280 281 281 282 283 284 286 289 293 296 296 300 305 298 288 295 290 289 285 286 283 287 256 255 263 270 274 262 271 267 257 262 262 255 256 261 268 269 269
180 183 173 173 178 180 179 181 182 178 182 192 188 184 182 183 171 157 163 159 153 154 150 163 162 183 203 204 204 205 217 233 243 249 253 259 261 259 264 265 263 261 275 284 286 279 281 283 281 280 280 286 293 295 295 294 293 293 284 280 287 294 286 283 284 286 289 281 268 258 263 260 276 266 264 271 267 251 265 262 258 260 262 264 264
176 165 170 173 175 180 187 185 182 180 178 189 186 184 182 182 170 156 159 158 158 162 162 160 178 193 209 214 217 217 223 234 244 251 258 262 266 263 261 264 270 280 283 288 286 283 273 262 270 290 293 290 289 287 286 288 288 288 283 279 280 274 275 278 279 284 283 276 245 234 254 266 269 267 259 278 271 257 241 256 254 258 254 252 251